Home > Weather > Yverdon-les-Bains > Past weeks

Flag for Switzerland Weather for the Past 2 Weeks in Yverdon-les-Bains, Vaud, Switzerland

Now
28 °F

Light snow. Partly cloudy.


Feels Like: 23 °F
Forecast: 38 / 43 °F
Wind: 5 mph from Southwest

Location: Les Eplatures

Current Time: Feb 12, 2016 at 4:47:22 AM

Latest Report: Feb 12, 2016 at 3:50 AM


Visibility: N/A

Pressure: 29.62 "Hg

Humidity: 93%

Dew point: 27 °F

Location of Yverdon-les-BainsLocation

Historic Weather in Yverdon-les-Bains — Graph

°F

Yverdon-les-Bains Temperature Yesterday

Maximum temperature yesterday: 32 °F (at 11:50 AM)
Minimum temperature yesterday: 18 °F (at 7:50 AM)
Average temperature yesterday: 28 °F

High & Low Weather Summary for the Past Weeks

 TemperatureHumidityPressure
High50 °F (Feb 6, 1:20 PM)100% (Jan 29, 12:20 AM)30.45 "Hg (Jan 29, 12:20 AM)
Low18 °F (Feb 11, 7:50 AM)40% (Feb 6, 1:20 PM)29.33 "Hg (Feb 9, 4:20 PM)
Average37 °F88%30.04 "Hg
* Reported Jan 28 3:20 AM — Feb 12 3:20 AM, Yverdon-les-Bains, Weather by CustomWeather, © 2016

Note: Actual official high and low records may vary slightly from our data, if they occured in-between our weather recording intervals... More about our weather records

Advertising

Yverdon-les-Bains Weather History for the Previous 24 Hours

 ConditionsComfort  
Time TempWeatherWind HumidityBarometerVisibility
3:20 AM
Fri, Feb 12
28 °FPartly cloudy.6 mph93%29.65 "HgN/A
2:50 AM28 °FMostly cloudy.9 mph93%29.65 "HgN/A
2:20 AM28 °FPartly cloudy.10 mph93%29.65 "HgN/A
1:50 AM28 °FPassing clouds.12 mph93%29.65 "HgN/A
1:20 AM28 °FSnow flurries. Passing clouds.10 mph93%29.65 "HgN/A
12:50 AM28 °FLow clouds.6 mph93%29.65 "HgN/A
12:20 AM28 °FPassing clouds.5 mph93%29.65 "HgN/A
11:50 PM
Thu, Feb 11
28 °FLight snow. Partly cloudy.3 mph93%29.65 "HgN/A
10:50 PM28 °FLight snow. Partly cloudy.2 mph93%29.68 "Hg6 mi
10:20 PM28 °FLight snow. Passing clouds.1 mph93%29.68 "HgN/A
9:50 PM28 °FLight snow. Passing clouds.1 mph86%29.68 "HgN/A
9:20 PM28 °FLight snow. Partly cloudy.2 mph86%29.68 "HgN/A
8:50 PM28 °FLight snow. Partly cloudy.2 mph86%29.68 "HgN/A
8:20 PM30 °FLight snow. Passing clouds.3 mph75%29.68 "HgN/A
7:50 PM30 °FPartly cloudy.1 mph75%29.68 "HgN/A
7:20 PM28 °FPartly cloudy.No wind86%29.68 "HgN/A
6:50 PM28 °FClear.No wind86%29.68 "HgN/A
6:20 PM28 °FSunny.1 mph80%29.68 "Hg10 mi
5:50 PM30 °FBroken clouds.2 mph75%29.65 "HgN/A
5:20 PM32 °FBroken clouds.2 mph69%29.65 "HgN/A
4:50 PM32 °FBroken clouds.3 mph64%29.65 "HgN/A
4:20 PM32 °FPassing clouds.3 mph60%29.65 "HgN/A
3:50 PM32 °FBroken clouds.5 mph60%29.65 "HgN/A
3:20 PM32 °FBroken clouds.2 mph69%29.65 "HgN/A
2:50 PM32 °FPartly sunny.3 mph69%29.65 "HgN/A
2:20 PM32 °FPartly sunny.2 mph75%29.68 "HgN/A
1:50 PM32 °FPassing clouds.6 mph75%29.68 "HgN/A
1:20 PM32 °FPassing clouds.2 mph64%29.68 "HgN/A
12:50 PM32 °FPassing clouds.3 mph69%29.71 "HgN/A
12:20 PM32 °FPassing clouds.6 mph64%29.71 "HgN/A
11:50 AM32 °FPassing clouds.6 mph64%29.71 "HgN/A
11:20 AM30 °FPassing clouds.6 mph75%29.74 "HgN/A
10:50 AM30 °FSunny.5 mph75%29.74 "Hg10 mi
10:20 AM27 °FSunny.3 mph86%29.74 "Hg10 mi
9:50 AM27 °FSunny.1 mph86%29.74 "Hg10 mi
9:20 AM21 °FSunny.No wind100%29.74 "Hg10 mi
8:50 AM19 °FSunny.No wind93%29.71 "Hg10 mi
8:20 AM19 °FClear.No wind93%29.71 "Hg10 mi
7:50 AM18 °FClear.1 mph100%29.71 "Hg10 mi
7:20 AM19 °FClear.1 mph93%29.71 "Hg10 mi
6:50 AM23 °FCold.1 mph93%29.71 "HgN/A
6:20 AM23 °FPassing clouds.1 mph93%29.71 "HgN/A
5:20 AM27 °FMostly cloudy.2 mph86%29.74 "HgN/A
4:50 AM27 °FMostly cloudy.2 mph86%29.74 "HgN/A
4:20 AM27 °FPassing clouds.3 mph86%29.74 "HgN/A
Weather by CustomWeather, © 2016

See weather overviewHow to use our weather pages